Amateur Radio Satellites - All Passes

Search period start: 23 May 2013 19:07
Search period end: 24 May 2013 19:07
Location: ASU Dark Sky Observatory, 36.2504°N, 81.4125°W

Satellite Date Start Highest point End Downlink Frequencies (MHz)
Time Altitude Azimuth
RS-15 23 May 19:08:06 19:18:30 33° 318° (NW) 19:28:36 29.354 - 29.394 USB, Beacon 29.352 USB
Hamsat 23 May 19:23:25 19:27:25 45° 74° (ENE) 19:31:28 145.90 MHz
SO-67 23 May 19:31:38 19:33:37 14° 69° (ENE) 19:35:36 435.3500 MHz FM
STRAND 1 23 May 19:56:57 20:02:08 88° 284° (WNW) 20:07:17 ?
UOSAT-12 23 May 20:15:15 20:19:08 26° 51° (NE) 20:23:00 437.025 FM, 437.400 FM
JAS-2 23 May 20:36:39 20:40:35 15° 57° (ENE) 20:44:31 435.800 - 435.900 CW/SSB, 435.910 FM
JAS-1B 23 May 20:42:32 20:51:57 74° 257° (WSW) 21:00:01 435.800 - 435.900 CW/SSB
HO-68 23 May 20:52:55 20:58:36 27° 62° (ENE) 21:04:17 435.675 MHz FM
Hamsat 23 May 21:01:56 21:03:43 12° 268° (W) 21:05:30 145.90 MHz
SO-67 23 May 21:03:43 21:06:49 28° 263° (W) 21:09:55 435.3500 MHz FM
Oscar 11 23 May 21:25:49 21:28:11 15° 66° (ENE) 21:30:34 145.825 FM, Beacon 2401.500 USB
RS-15 23 May 21:30:47 21:36:11 14° 352° (N) 21:41:31 29.354 - 29.394 USB, Beacon 29.352 USB
UOSAT-12 23 May 21:55:14 21:59:17 31° 247° (WSW) 22:03:20 437.025 FM, 437.400 FM
JAS-2 23 May 22:16:38 22:24:18 76° 74° (ENE) 22:32:09 435.800 - 435.900 CW/SSB, 435.910 FM
OPAL 23 May 22:16:39 22:21:15 33° 68° (ENE) 22:25:50 ?
KITSAT 1 23 May 22:20:45 22:27:31 31° 106° (ESE) 22:34:19 435.175 FM
HO-68 23 May 22:38:53 22:45:49 55° 258° (WSW) 22:52:49 435.675 MHz FM
JAS-1B 23 May 22:39:47 22:43:06 12° 270° (W) 22:46:16 435.800 - 435.900 CW/SSB
AO-40 23 May 22:50:02 04:53:41 49° 175° (S) 10:51:15 Beacon 2401.320
Oscar 11 23 May 22:59:55 23:04:01 43° 261° (W) 23:08:10 145.825 FM, Beacon 2401.500 USB
RS-15 23 May 23:47:05 23:55:06 21° 29° (NNE) 00:02:53 29.354 - 29.394 USB, Beacon 29.352 USB
OPAL 23 May 23:55:46 00:00:06 27° 262° (W) 00:04:26 ?
JAS-2 24 May 00:04:31 00:09:52 20° 270° (W) 00:15:19 435.800 - 435.900 CW/SSB, 435.910 FM
KITSAT 1 24 May 00:14:39 00:22:29 54° 303° (WNW) 00:30:24 435.175 FM
MaSat-1 24 May 01:06:39 01:12:28 27° 106° (ESE) 01:17:36 437.345 MHz
Oscar 19 24 May 01:56:30 01:57:16 10° 90° (E) 01:58:02 437.125 CW, 437.150 USB
RS-15 24 May 01:58:58 02:10:03 69° 57° (ENE) 02:20:51 29.354 - 29.394 USB, Beacon 29.352 USB
KITSAT 1 24 May 02:16:23 02:19:57 13° 327° (NNW) 02:23:31 435.175 FM
ISS 24 May 02:28:55 02:32:10 62° 136° (SE) 02:35:28 145.800 FM
Oscar 16 24 May 02:32:44 02:37:21 32° 97° (E) 02:41:55 437.025 USB, Beacon 2401.1428
AO-27 24 May 02:44:40 02:49:15 30° 97° (E) 02:53:49 436.795 MHz FM
MaSat-1 24 May 02:47:34 02:54:28 51° 296° (WNW) 03:00:13 437.345 MHz
ITAMSAT 1 24 May 02:50:53 02:55:37 34° 98° (E) 03:00:20 435.822 SSB
AO-Echo 24 May 03:26:14 03:30:06 24° 96° (E) 03:34:01 ?
Uribyol 2 24 May 03:31:15 03:36:31 89° 282° (WNW) 03:41:45 436.500 FM
Oscar 19 24 May 03:31:58 03:37:08 76° 285° (WNW) 03:42:14 437.125 CW, 437.150 USB
ISS 24 May 04:06:56 04:09:10 17° 333° (NNW) 04:11:23 145.800 FM
Oscar 16 24 May 04:12:17 04:16:33 27° 292° (WNW) 04:20:47 437.025 USB, Beacon 2401.1428
RS-15 24 May 04:12:38 04:21:21 29° 256° (WSW) 04:30:02 29.354 - 29.394 USB, Beacon 29.352 USB
AO-27 24 May 04:24:13 04:28:39 29° 292° (WNW) 04:33:05 436.795 MHz FM
ITAMSAT 1 24 May 04:30:41 04:34:56 26° 292° (WNW) 04:39:11 435.822 SSB
TMSAT-1 24 May 04:33:25 04:37:49 26° 95° (E) 04:42:12 436.925 FM
Gurwin Techsat 1B 24 May 04:55:23 05:00:42 67° 102° (ESE) 05:05:58 435.225 FM
Uosat F 24 May 04:58:07 05:03:11 87° 104° (ESE) 05:08:13 435.120 FM
AO-Echo 24 May 05:04:42 05:08:52 31° 290° (WNW) 05:13:07 ?
Uribyol 2 24 May 05:14:50 05:15:11 10° 300° (WNW) 05:15:33 436.500 FM
STRAND 1 24 May 05:35:37 05:37:01 11° 61° (ENE) 05:38:25 ?
Saudisat 1A 24 May 05:45:05 05:49:35 64° 117° (ESE) 05:54:09 436.775 MHz
AO-7 24 May 06:03:44 06:11:53 53° 102° (ESE) 06:19:58 29.400 - 29.500 MHz
TMSAT-1 24 May 06:13:00 06:17:44 34° 290° (WNW) 06:22:28 436.925 FM
KITSAT 1 24 May 06:17:44 06:20:46 12° 31° (NNE) 06:23:48 435.175 FM
Gurwin Techsat 1B 24 May 06:37:19 06:40:04 14° 297° (WNW) 06:42:48 435.225 FM
PCSat 24 May 07:01:23 07:06:15 35° 109° (ESE) 07:11:08 145.825 MHz
STRAND 1 24 May 07:10:25 07:15:30 80° 257° (WSW) 07:20:37 ?
Hamsat 24 May 07:15:19 07:16:09 10° 91° (E) 07:17:00 145.90 MHz
Saudisat 1A 24 May 07:27:02 07:29:43 15° 314° (NW) 07:32:24 436.775 MHz
Sapphire 24 May 07:33:50 07:39:11 68° 114° (ESE) 07:44:34 437.095 MHz 1200 baud AX-25 AFSK
SO-50 24 May 07:34:35 07:36:30 12° 107° (ESE) 07:38:25 436.795 FM
Oscar 10/S400 24 May 07:47:50 10:25:47 43° 262° (W) 17:58:08 145.825 - 145.975 CW/USB, Beacon 145.810 USB
AO-7 24 May 07:57:07 08:04:15 33° 299° (WNW) 08:11:22 29.400 - 29.500 MHz
KITSAT 1 24 May 08:10:34 08:18:25 49° 55° (NE) 08:26:13 435.175 FM
JAS-1B 24 May 08:32:57 08:38:09 32° 96° (E) 08:43:10 435.800 - 435.900 CW/SSB
SO-67 24 May 08:33:00 08:36:01 25° 96° (E) 08:39:01 435.3500 MHz FM
PCSat 24 May 08:45:00 08:49:40 29° 306° (NW) 08:54:22 145.825 MHz
Hamsat 24 May 08:48:15 08:52:32 57° 285° (WNW) 08:56:50 145.90 MHz
ISS 24 May 09:00:03 09:02:57 26° 33° (NNE) 09:05:52 145.800 FM
SO-50 24 May 09:11:49 09:16:35 66° 302° (WNW) 09:21:19 436.795 FM
Sapphire 24 May 09:19:38 09:23:07 17° 311° (NW) 09:26:37 437.095 MHz 1200 baud AX-25 AFSK
KITSAT 1 24 May 10:06:25 10:13:31 35° 253° (WSW) 10:20:36 435.175 FM
SO-67 24 May 10:07:02 10:09:15 16° 290° (WNW) 10:11:29 435.3500 MHz FM
HO-68 24 May 10:09:39 10:16:01 34° 98° (E) 10:22:21 435.675 MHz FM
JAS-1B 24 May 10:23:50 10:28:44 28° 295° (WNW) 10:33:26 435.800 - 435.900 CW/SSB
UOSAT-12 24 May 10:26:30 10:28:32 13° 108° (ESE) 10:30:34 437.025 FM, 437.400 FM
ISS 24 May 10:36:41 10:39:39 29° 228° (SW) 10:42:35 145.800 FM
Oscar 11 24 May 10:50:26 10:54:33 39° 98° (E) 10:58:38 145.825 FM, Beacon 2401.500 USB
PANSAT 24 May 10:51:42 10:53:44 14° 162° (SSE) 10:55:46 not established
JAS-2 24 May 11:15:43 11:22:29 84° 103° (ESE) 11:28:23 435.800 - 435.900 CW/SSB, 435.910 FM
MaSat-1 24 May 11:36:21 11:39:07 28° 59° (ENE) 11:41:29 437.345 MHz
HO-68 24 May 11:57:06 12:03:43 42° 293° (WNW) 12:10:19 435.675 MHz FM
UOSAT-12 24 May 12:03:45 12:08:10 56° 303° (WNW) 12:12:39 437.025 FM, 437.400 FM
OPAL 24 May 12:07:29 12:12:30 80° 287° (WNW) 12:17:26 ?
Oscar 11 24 May 12:27:43 12:30:26 16° 293° (WNW) 12:33:09 145.825 FM, Beacon 2401.500 USB
PANSAT 24 May 12:30:20 12:33:32 24° 174° (S) 12:36:44 not established
JAS-2 24 May 13:02:57 13:06:25 15° 303° (WNW) 13:09:41 435.800 - 435.900 CW/SSB, 435.910 FM
Oscar 19 24 May 13:10:13 13:12:39 13° 63° (ENE) 13:15:04 437.125 CW, 437.150 USB
Uribyol 2 24 May 13:11:15 13:13:01 12° 61° (ENE) 13:14:47 436.500 FM
Oscar 16 24 May 13:47:12 13:51:55 37° 70° (ENE) 13:56:40 437.025 USB, Beacon 2401.1428
AO-27 24 May 14:00:25 14:05:05 36° 70° (ENE) 14:09:47 436.795 MHz FM
ITAMSAT 1 24 May 14:06:29 14:11:16 40° 71° (ENE) 14:16:04 435.822 SSB
PANSAT 24 May 14:10:18 14:13:26 23° 187° (S) 14:16:33 not established
Saudisat 1A 24 May 14:15:27 14:19:16 26° 51° (NE) 14:23:00 436.775 MHz
AO-Echo 24 May 14:37:16 14:41:07 24° 69° (ENE) 14:44:54 ?
Oscar 19 24 May 14:46:12 14:51:22 70° 258° (WSW) 14:56:34 437.125 CW, 437.150 USB
Uribyol 2 24 May 14:46:37 14:51:47 79° 257° (WSW) 14:57:01 436.500 FM
AO-7 24 May 15:15:11 15:16:42 11° 47° (NE) 15:18:14 29.400 - 29.500 MHz
Oscar 16 24 May 15:27:14 15:31:20 23° 265° (W) 15:35:27 437.025 USB, Beacon 2401.1428
AO-27 24 May 15:40:32 15:44:39 24° 265° (W) 15:48:48 436.795 MHz FM
ITAMSAT 1 24 May 15:47:00 15:50:52 21° 265° (W) 15:54:47 435.822 SSB
PANSAT 24 May 15:51:42 15:53:12 12° 200° (SSW) 15:54:42 not established
TMSAT-1 24 May 15:51:44 15:56:21 32° 69° (ENE) 16:01:00 436.925 FM
PCSat 24 May 15:52:29 15:56:13 19° 49° (NE) 15:59:56 145.825 MHz
Saudisat 1A 24 May 15:54:59 15:58:56 30° 247° (WSW) 16:02:49 436.775 MHz
Uosat F 24 May 16:08:53 16:13:53 90° 71° (ENE) 16:18:54 435.120 FM
Gurwin Techsat 1B 24 May 16:13:54 16:19:12 80° 76° (ENE) 16:24:31 435.225 FM
AO-Echo 24 May 16:15:29 16:19:45 31° 263° (W) 16:23:58 ?
RS-15 24 May 16:17:22 16:29:07 59° 112° (ESE) 16:40:25 29.354 - 29.394 USB, Beacon 29.352 USB
Sapphire 24 May 16:24:50 16:29:39 31° 55° (NE) 16:34:26 437.095 MHz 1200 baud AX-25 AFSK
AO-7 24 May 16:59:40 17:07:41 57° 67° (ENE) 17:15:45 29.400 - 29.500 MHz
TMSAT-1 24 May 17:31:45 17:36:14 28° 264° (W) 17:40:45 436.925 FM
PCSat 24 May 17:34:43 17:40:05 62° 247° (WSW) 17:45:24 145.825 MHz
SO-50 24 May 17:46:38 17:51:04 53° 57° (ENE) 17:55:26 436.795 FM
Gurwin Techsat 1B 24 May 17:59:08 17:59:43 10° 270° (W) 18:00:17 435.225 FM
Sapphire 24 May 18:08:14 18:13:01 32° 251° (WSW) 18:17:46 437.095 MHz 1200 baud AX-25 AFSK
RS-15 24 May 18:30:51 18:41:57 42° 313° (NW) 18:52:42 29.354 - 29.394 USB, Beacon 29.352 USB

Developed and maintained by Chris Peat, Heavens-Above GmbH. Please read the updated FAQ before sending e-mail. Imprint. DLR
